ANS698 SAAR-SASA

Flight info

Callsign ANS698
Flight time N/A
Altitude 30000
Route DABOT2G DABOT DCT PAR UW8 ERE UT672 DADMI UT677 ILPAR DCT
Aircraft B738/M-SDE2E3FGHIRWXY/LB1

Departure

Time 2026-04-23 14:04
Airport Rosario Islas Malvinas International Airport (SAAR)

Arrival

Time N/A
Airport Martín Miguel de Güemes International Airport (SASA)
Time Latitude Longitude Altitude Speed Heading
2026-04-23 13:34 -32.91695 -60.78157 94 ft 0 kts 110°
2026-04-23 13:57 -32.91688 -60.78178 94 ft 4 kts 117°
2026-04-23 13:57 -32.91674 -60.78205 92 ft 4 kts 129°
2026-04-23 13:58 -32.91655 -60.78228 94 ft 4 kts 144°
2026-04-23 13:58 -32.91633 -60.78242 93 ft 4 kts 174°
2026-04-23 13:58 -32.91619 -60.78242 93 ft 1 kts 201°
2026-04-23 14:00 -32.91641 -60.78252 94 ft 6 kts 202°
2026-04-23 14:00 -32.91684 -60.78272 97 ft 7 kts 201°
2026-04-23 14:00 -32.91727 -60.78292 94 ft 7 kts 200°
2026-04-23 14:01 -32.91751 -60.78336 95 ft 7 kts 254°
2026-04-23 14:01 -32.91762 -60.78388 93 ft 6 kts 257°
2026-04-23 14:01 -32.91772 -60.78439 94 ft 6 kts 258°
2026-04-23 14:01 -32.91782 -60.78489 95 ft 6 kts 256°
2026-04-23 14:02 -32.91792 -60.78540 96 ft 7 kts 257°
2026-04-23 14:02 -32.91786 -60.78592 97 ft 7 kts 303°
2026-04-23 14:02 -32.91748 -60.78643 94 ft 10 kts 312°
2026-04-23 14:02 -32.91699 -60.78702 94 ft 10 kts 322°
2026-04-23 14:03 -32.91662 -60.78756 94 ft 4 kts 315°
2026-04-23 14:03 -32.91632 -60.78756 96 ft 5 kts
2026-04-23 14:03 -32.91445 -60.78713 98 ft 63 kts 11°
2026-04-23 14:03 -32.90773 -60.78563 99 ft 131 kts 11°
2026-04-23 14:04 -32.89696 -60.78309 203 ft 177 kts 13°
2026-04-23 14:04 -32.88543 -60.78055 1082 ft 166 kts 12°
2026-04-23 14:04 -32.87359 -60.77804 1835 ft 166 kts 12°
2026-04-23 14:04 -32.86211 -60.77556 2493 ft 181 kts 12°
2026-04-23 14:05 -32.84873 -60.77254 2809 ft 206 kts 12°
2026-04-23 14:05 -32.83383 -60.76919 3039 ft 227 kts 12°
2026-04-23 14:05 -32.81763 -60.76541 3295 ft 249 kts 13°
2026-04-23 14:05 -32.79996 -60.76127 3777 ft 263 kts 12°
2026-04-23 14:06 -32.78219 -60.75709 4743 ft 259 kts 12°
2026-04-23 14:06 -32.76439 -60.75294 5009 ft 267 kts 12°
2026-04-23 14:06 -32.74649 -60.74878 5230 ft 260 kts 12°
2026-04-23 14:06 -32.72840 -60.74484 5288 ft 267 kts 11°
2026-04-23 14:07 -32.70968 -60.74081 5040 ft 277 kts 12°
2026-04-23 14:07 -32.67302 -60.73241 5301 ft 266 kts 12°
2026-04-23 14:07 -32.65461 -60.72821 5873 ft 271 kts 11°
2026-04-23 14:08 -32.63624 -60.72362 6756 ft 269 kts 14°
2026-04-23 14:08 -32.61794 -60.71769 7428 ft 276 kts 16°
2026-04-23 14:08 -32.59924 -60.71124 8086 ft 282 kts 16°
2026-04-23 14:08 -32.58049 -60.70474 8787 ft 287 kts 15°
2026-04-23 14:09 -32.56751 -60.70028 9252 ft 291 kts 15°
2026-04-23 14:09 -32.54777 -60.69354 9936 ft 297 kts 15°
2026-04-23 14:09 -32.52783 -60.68678 10563 ft 303 kts 15°
2026-04-23 14:09 -32.50670 -60.67966 10755 ft 327 kts 15°
2026-04-23 14:10 -32.48409 -60.67207 10915 ft 349 kts 15°
2026-04-23 14:10 -32.45188 -60.66128 11121 ft 375 kts 14°
2026-04-23 14:10 -32.43479 -60.65555 11336 ft 383 kts 14°
2026-04-23 14:10 -32.40883 -60.64693 11861 ft 388 kts 13°
2026-04-23 14:11 -32.37388 -60.63688 12646 ft 393 kts 10°
2026-04-23 14:11 -32.35620 -60.63218 13058 ft 395 kts 10°
2026-04-23 14:11 -32.32921 -60.62512 13640 ft 399 kts
2026-04-23 14:11 -32.30196 -60.61796 14200 ft 404 kts
2026-04-23 14:12 -32.27447 -60.61065 14765 ft 406 kts
2026-04-23 14:12 -32.24683 -60.60324 15395 ft 408 kts
2026-04-23 14:12 -32.22090 -60.59623 15978 ft 410 kts
2026-04-23 14:12 -32.19338 -60.58877 16578 ft 412 kts
2026-04-23 14:13 -32.16566 -60.58123 17468 ft 406 kts
2026-04-23 14:13 -32.13788 -60.57367 18258 ft 405 kts
2026-04-23 14:13 -32.11023 -60.56617 18791 ft 409 kts
2026-04-23 14:13 -32.08278 -60.55875 19288 ft 412 kts
2026-04-23 14:14 -32.05481 -60.55119 19819 ft 414 kts
2026-04-23 14:14 -32.02666 -60.54358 20401 ft 415 kts
2026-04-23 14:14 -31.99851 -60.53595 21015 ft 415 kts
2026-04-23 14:14 -31.97036 -60.52833 21571 ft 417 kts
2026-04-23 14:15 -31.94190 -60.52065 22077 ft 420 kts
2026-04-23 14:15 -31.91338 -60.51295 22569 ft 422 kts
2026-04-23 14:15 -31.88474 -60.50521 23070 ft 424 kts
2026-04-23 14:15 -31.85583 -60.49742 23575 ft 426 kts
2026-04-23 14:16 -31.82699 -60.48943 24006 ft 430 kts
2026-04-23 14:16 -31.79845 -60.47757 24400 ft 439 kts 17°
2026-04-23 14:16 -31.77161 -60.46057 24805 ft 447 kts 23°
2026-04-23 14:16 -31.74494 -60.44173 25198 ft 449 kts 24°
2026-04-23 14:17 -31.71813 -60.42248 25559 ft 452 kts 24°
2026-04-23 14:17 -31.69130 -60.40320 25917 ft 453 kts 24°
2026-04-23 14:17 -31.66428 -60.38390 26273 ft 455 kts 23°
2026-04-23 14:17 -31.63737 -60.36479 26620 ft 457 kts 23°
2026-04-23 14:18 -31.60990 -60.34542 26949 ft 458 kts 23°
2026-04-23 14:18 -31.58253 -60.32620 27282 ft 460 kts 22°
2026-04-23 14:18 -31.55495 -60.30690 27596 ft 462 kts 22°
2026-04-23 14:18 -31.52766 -60.28782 27911 ft 464 kts 22°
2026-04-23 14:19 -31.49954 -60.26819 28219 ft 465 kts 22°
2026-04-23 14:19 -31.47214 -60.24907 28611 ft 464 kts 22°
2026-04-23 14:19 -31.44446 -60.22973 29111 ft 462 kts 22°
2026-04-23 14:19 -31.41705 -60.21057 29622 ft 459 kts 21°
2026-04-23 14:20 -31.38965 -60.19147 30078 ft 457 kts 21°
2026-04-23 14:20 -31.36212 -60.17287 30401 ft 456 kts 19°
2026-04-23 14:20 -31.33397 -60.15553 30538 ft 457 kts 17°
2026-04-23 14:20 -31.30512 -60.14027 30583 ft 459 kts 13°
2026-04-23 14:21 -31.24455 -60.11769 30790 ft 454 kts
2026-04-23 14:21 -31.21345 -60.11146 31034 ft 446 kts 358°
2026-04-23 14:21 -31.18276 -60.10909 31295 ft 439 kts 352°
2026-04-23 14:22 -31.15301 -60.11054 31493 ft 432 kts 346°
2026-04-23 14:22 -31.12318 -60.11605 31605 ft 428 kts 340°
2026-04-23 14:22 -31.06847 -60.14079 30797 ft 411 kts 320°
2026-04-23 14:23 -31.04626 -60.15216 21567 ft 287 kts 349°
2026-04-23 14:23 -31.03744 -60.14026 8514 ft 295 kts 90°
2026-04-23 14:23 -31.04063 -60.11048 1103 ft 411 kts 99°
2026-04-23 14:23 -31.04407 -60.07991 216 ft 335 kts 80°
2026-04-23 14:24 -31.03102 -60.06206 170 ft 277 kts 30°
2026-04-23 14:24 -31.01484 -60.05333 88 ft 234 kts 26°
2026-04-23 14:24 -31.00085 -60.04741 72 ft 198 kts 10°
2026-04-23 14:24 -30.98807 -60.04686 71 ft 172 kts
2026-04-23 14:25 -30.97689 -60.04725 57 ft 145 kts
2026-04-23 14:25 -30.97287 -60.04722 58 ft 11 kts
2026-04-23 14:25 -30.97267 -60.04691 59 ft 2 kts 104°
2026-04-23 14:25 -30.97267 -60.04690 59 ft 0 kts 104°